Location: Boncourt
(49.6160°N, 3.9448°E)
Time: 14:32:01
(UTC+00:00)

Cosmos 1825 - Pass Details

Date: 09 February 2023
Orbit: 480 x 488 km, 82.5° (Epoch: 25 March)

Event Time Altitude Azimuth Distance (km) Brightness Sun altitude
Rises 17:28:58 0° 187° (S) 2,571 6.1 -6.4°
Reaches altitude 10° 17:31:03 10° 187° (S) 1,694 5.1 -6.7°
Maximum altitude 17:34:46 86° 99° (E) 505 2.1 -7.3°
Drops below altitude 10° 17:38:31 10° 11° (N) 1,709 4.6 -7.9°
Sets 17:40:39 0° 11° (N) 2,596 5.5 -8.2°
